Year,Month,Day,Hour,Minute,Value (Times are PST for temperature in C)
2018,07,17,00,00,18.70
2018,07,17,00,01,18.70
2018,07,17,00,02,18.70
2018,07,17,00,03,18.60
2018,07,17,00,04,18.60
2018,07,17,00,05,18.50
2018,07,17,00,06,18.50
2018,07,17,00,07,18.50
2018,07,17,00,08,18.40
2018,07,17,00,09,18.40
2018,07,17,00,10,18.40
2018,07,17,00,11,18.40
2018,07,17,00,12,18.30
2018,07,17,00,13,18.30
2018,07,17,00,14,18.30
2018,07,17,00,15,18.30
2018,07,17,00,16,18.30
2018,07,17,00,17,18.30
2018,07,17,00,18,18.20
2018,07,17,00,19,18.20
2018,07,17,00,20,18.20
2018,07,17,00,21,18.20
2018,07,17,00,22,18.10
2018,07,17,00,23,18.10
2018,07,17,00,24,18.10
2018,07,17,00,25,18.10
2018,07,17,00,26,18.10
2018,07,17,00,27,18.00
2018,07,17,00,28,18.00
2018,07,17,00,29,18.00
2018,07,17,00,30,17.90
2018,07,17,00,31,17.90
2018,07,17,00,32,17.90
2018,07,17,00,33,17.90
2018,07,17,00,34,17.80
2018,07,17,00,35,17.80
2018,07,17,00,36,17.80
2018,07,17,00,37,17.80
2018,07,17,00,38,17.80
2018,07,17,00,39,17.70
2018,07,17,00,40,17.70
2018,07,17,00,41,17.70
2018,07,17,00,42,17.70
2018,07,17,00,43,17.70
2018,07,17,00,44,17.70
2018,07,17,00,45,17.70
2018,07,17,00,46,17.70
2018,07,17,00,47,17.70
2018,07,17,00,48,17.70
2018,07,17,00,49,17.70
2018,07,17,00,50,17.70
2018,07,17,00,51,17.70
2018,07,17,00,52,17.70
2018,07,17,00,53,17.70
2018,07,17,00,54,17.70
2018,07,17,00,55,17.70
2018,07,17,00,56,17.70
2018,07,17,00,57,17.70
2018,07,17,00,58,17.70
2018,07,17,00,59,17.70
2018,07,17,01,00,17.70
2018,07,17,01,01,17.70
2018,07,17,01,02,17.70
2018,07,17,01,03,17.70
2018,07,17,01,04,17.70
2018,07,17,01,05,17.70
2018,07,17,01,06,17.70
2018,07,17,01,07,17.70
2018,07,17,01,08,17.80
2018,07,17,01,09,17.80
2018,07,17,01,10,17.80
2018,07,17,01,11,17.80
2018,07,17,01,12,17.80
2018,07,17,01,13,17.80
2018,07,17,01,14,17.80
2018,07,17,01,15,17.80
2018,07,17,01,16,17.80
2018,07,17,01,17,17.80
2018,07,17,01,18,17.80
2018,07,17,01,19,17.80
2018,07,17,01,20,17.80
2018,07,17,01,21,17.80
2018,07,17,01,22,17.80
2018,07,17,01,23,17.80
2018,07,17,01,24,17.70
2018,07,17,01,25,17.70
2018,07,17,01,26,17.70
2018,07,17,01,27,17.70
2018,07,17,01,28,17.80
2018,07,17,01,29,17.70
2018,07,17,01,30,17.70
2018,07,17,01,31,17.70
2018,07,17,01,32,17.70
2018,07,17,01,33,17.70
2018,07,17,01,34,17.70
2018,07,17,01,35,17.70
2018,07,17,01,36,17.70
2018,07,17,01,37,17.70
2018,07,17,01,38,17.70
2018,07,17,01,39,17.70
2018,07,17,01,40,17.80
2018,07,17,01,41,17.80
2018,07,17,01,42,17.80
2018,07,17,01,43,17.80
2018,07,17,01,44,17.80
2018,07,17,01,45,17.80
2018,07,17,01,46,17.80
2018,07,17,01,47,17.80
2018,07,17,01,48,17.80
2018,07,17,01,49,17.80
2018,07,17,01,50,17.80
2018,07,17,01,51,17.80
2018,07,17,01,52,17.80
2018,07,17,01,53,17.80
2018,07,17,01,54,17.80
2018,07,17,01,55,17.80
2018,07,17,01,56,17.80
2018,07,17,01,57,17.70
2018,07,17,01,58,17.70
2018,07,17,01,59,17.70
2018,07,17,02,00,17.70
2018,07,17,02,01,17.70
2018,07,17,02,02,17.70
2018,07,17,02,03,17.70
2018,07,17,02,04,17.70
2018,07,17,02,05,17.70
2018,07,17,02,06,17.60
2018,07,17,02,07,17.60
2018,07,17,02,08,17.60
2018,07,17,02,09,17.60
2018,07,17,02,10,17.60
2018,07,17,02,11,17.60
2018,07,17,02,12,17.50
2018,07,17,02,13,17.50
2018,07,17,02,14,17.50
2018,07,17,02,15,17.50
2018,07,17,02,16,17.40
2018,07,17,02,17,17.40
2018,07,17,02,18,17.40
2018,07,17,02,19,17.40
2018,07,17,02,20,17.40
2018,07,17,02,21,17.40
2018,07,17,02,22,17.40
2018,07,17,02,23,17.40
2018,07,17,02,24,17.30
2018,07,17,02,25,17.30
2018,07,17,02,26,17.30
2018,07,17,02,27,17.30
2018,07,17,02,28,17.30
2018,07,17,02,29,17.30
2018,07,17,02,30,17.20
2018,07,17,02,31,17.10
2018,07,17,02,32,17.00
2018,07,17,02,33,17.00
2018,07,17,02,34,16.90
2018,07,17,02,35,16.80
2018,07,17,02,36,16.70
2018,07,17,02,37,16.60
2018,07,17,02,38,16.50
2018,07,17,02,39,16.50
2018,07,17,02,40,16.40
2018,07,17,02,41,16.40
2018,07,17,02,42,16.40
2018,07,17,02,43,16.30
2018,07,17,02,44,16.30
2018,07,17,02,45,16.30
2018,07,17,02,46,16.30
2018,07,17,02,47,16.30
2018,07,17,02,48,16.30
2018,07,17,02,49,16.30
2018,07,17,02,50,16.30
2018,07,17,02,51,16.30
2018,07,17,02,52,16.30
2018,07,17,02,53,16.30
2018,07,17,02,54,16.30
2018,07,17,02,55,16.30
2018,07,17,02,56,16.40
2018,07,17,02,57,16.40
2018,07,17,02,58,16.40
2018,07,17,02,59,16.40
2018,07,17,03,00,16.50
2018,07,17,03,01,16.50
2018,07,17,03,02,16.50
2018,07,17,03,03,16.60
2018,07,17,03,04,16.60
2018,07,17,03,05,16.60
2018,07,17,03,06,16.60
2018,07,17,03,07,16.60
2018,07,17,03,08,16.60
2018,07,17,03,09,16.50
2018,07,17,03,10,16.50
2018,07,17,03,11,16.50
2018,07,17,03,12,16.40
2018,07,17,03,13,16.40
2018,07,17,03,14,16.40
2018,07,17,03,15,16.40
2018,07,17,03,16,16.40
2018,07,17,03,17,16.40
2018,07,17,03,18,16.40
2018,07,17,03,19,16.40
2018,07,17,03,20,16.40
2018,07,17,03,21,16.40
2018,07,17,03,22,16.40
2018,07,17,03,23,16.40
2018,07,17,03,24,16.40
2018,07,17,03,25,16.40
2018,07,17,03,26,16.40
2018,07,17,03,27,16.40
2018,07,17,03,28,16.40
2018,07,17,03,29,16.40
2018,07,17,03,30,16.40
2018,07,17,03,31,16.40
2018,07,17,03,32,16.50
2018,07,17,03,33,16.50
2018,07,17,03,34,16.50
2018,07,17,03,35,16.50
2018,07,17,03,36,16.50
2018,07,17,03,37,16.50
2018,07,17,03,38,16.60
2018,07,17,03,39,16.60
2018,07,17,03,40,16.60
2018,07,17,03,41,16.70
2018,07,17,03,42,16.70
2018,07,17,03,43,16.80
2018,07,17,03,44,16.90
2018,07,17,03,45,16.90
2018,07,17,03,46,16.90
2018,07,17,03,47,17.00
2018,07,17,03,48,17.00
2018,07,17,03,49,17.00
2018,07,17,03,50,17.00
2018,07,17,03,51,17.10
2018,07,17,03,52,17.10
2018,07,17,03,53,17.10
2018,07,17,03,54,17.10
2018,07,17,03,55,17.10
2018,07,17,03,56,17.10
2018,07,17,03,57,17.10
2018,07,17,03,58,17.10
2018,07,17,03,59,17.10
2018,07,17,04,00,17.10
2018,07,17,04,01,17.00
2018,07,17,04,02,17.00
2018,07,17,04,03,17.00
2018,07,17,04,04,16.90
2018,07,17,04,05,16.90
2018,07,17,04,06,16.90
2018,07,17,04,07,16.80
2018,07,17,04,08,16.80
2018,07,17,04,09,16.80
2018,07,17,04,10,16.80
2018,07,17,04,11,16.70
2018,07,17,04,12,16.70
2018,07,17,04,13,16.70
2018,07,17,04,14,16.70
2018,07,17,04,15,16.70
2018,07,17,04,16,16.70
2018,07,17,04,17,16.70
2018,07,17,04,18,16.70
2018,07,17,04,19,16.70
2018,07,17,04,20,16.70
2018,07,17,04,21,16.70
2018,07,17,04,22,16.70
2018,07,17,04,23,16.70
2018,07,17,04,24,16.70
2018,07,17,04,25,16.70
2018,07,17,04,26,16.60
2018,07,17,04,27,16.60
2018,07,17,04,28,16.60
2018,07,17,04,29,16.50
2018,07,17,04,30,16.50
2018,07,17,04,31,16.40
2018,07,17,04,32,16.40
2018,07,17,04,33,16.40
2018,07,17,04,34,16.40
2018,07,17,04,35,16.40
2018,07,17,04,36,16.40
2018,07,17,04,37,16.40
2018,07,17,04,38,16.40
2018,07,17,04,39,16.40
2018,07,17,04,40,16.50
2018,07,17,04,41,16.50
2018,07,17,04,42,16.50
2018,07,17,04,43,16.50
2018,07,17,04,44,16.50
2018,07,17,04,45,16.50
2018,07,17,04,46,16.60
2018,07,17,04,47,16.60
2018,07,17,04,48,16.60
2018,07,17,04,49,16.60
2018,07,17,04,50,16.60
2018,07,17,04,51,16.60
2018,07,17,04,52,16.60
2018,07,17,04,53,16.60
2018,07,17,04,54,16.60
2018,07,17,04,55,16.60
2018,07,17,04,56,16.60
2018,07,17,04,57,16.60
2018,07,17,04,58,16.50
2018,07,17,04,59,16.50
2018,07,17,05,00,16.40
2018,07,17,05,01,16.40
2018,07,17,05,02,16.30
2018,07,17,05,03,16.20
2018,07,17,05,04,16.20
2018,07,17,05,05,16.10
2018,07,17,05,06,16.10
2018,07,17,05,07,16.00
2018,07,17,05,08,16.00
2018,07,17,05,09,15.90
2018,07,17,05,10,15.90
2018,07,17,05,11,15.80
2018,07,17,05,12,15.80
2018,07,17,05,13,15.80
2018,07,17,05,14,15.80
2018,07,17,05,15,15.70
2018,07,17,05,16,15.70
2018,07,17,05,17,15.70
2018,07,17,05,18,15.70
2018,07,17,05,19,15.70
2018,07,17,05,20,15.70
2018,07,17,05,21,15.70
2018,07,17,05,22,15.80
2018,07,17,05,23,15.80
2018,07,17,05,24,15.80
2018,07,17,05,25,15.80
2018,07,17,05,26,15.80
2018,07,17,05,27,15.90
2018,07,17,05,28,15.90
2018,07,17,05,29,15.90
2018,07,17,05,30,15.90
2018,07,17,05,31,16.00
2018,07,17,05,32,16.00
2018,07,17,05,33,16.00
2018,07,17,05,34,16.00
2018,07,17,05,35,16.00
2018,07,17,05,36,16.00
2018,07,17,05,37,16.00
2018,07,17,05,38,16.00
2018,07,17,05,39,16.00
2018,07,17,05,40,16.00
2018,07,17,05,41,16.00
2018,07,17,05,42,15.90
2018,07,17,05,43,15.90
2018,07,17,05,44,15.90
2018,07,17,05,45,15.90
2018,07,17,05,46,15.80
2018,07,17,05,47,15.80
2018,07,17,05,48,15.80
2018,07,17,05,49,15.80
2018,07,17,05,50,15.70
2018,07,17,05,51,15.70
2018,07,17,05,52,15.70
2018,07,17,05,53,15.70
2018,07,17,05,54,15.70
2018,07,17,05,55,15.70
2018,07,17,05,56,15.70
2018,07,17,05,57,15.70
2018,07,17,05,58,15.70
2018,07,17,05,59,15.70
2018,07,17,06,00,15.70
2018,07,17,06,01,15.70
2018,07,17,06,02,15.70
2018,07,17,06,03,15.70
2018,07,17,06,04,15.70
2018,07,17,06,05,15.70
2018,07,17,06,06,15.70
2018,07,17,06,07,15.70
2018,07,17,06,08,15.70
2018,07,17,06,09,15.70
2018,07,17,06,10,15.60
2018,07,17,06,11,15.60
2018,07,17,06,12,15.60
2018,07,17,06,13,15.60
2018,07,17,06,14,15.50
2018,07,17,06,15,15.50
2018,07,17,06,16,15.50
2018,07,17,06,17,15.50
2018,07,17,06,18,15.60
2018,07,17,06,19,15.60
2018,07,17,06,20,15.60
2018,07,17,06,21,15.60
2018,07,17,06,22,15.60
2018,07,17,06,23,15.70
2018,07,17,06,24,15.70
2018,07,17,06,25,15.70
2018,07,17,06,26,15.70
2018,07,17,06,27,15.70
2018,07,17,06,28,15.70
2018,07,17,06,29,15.80
2018,07,17,06,30,15.80
2018,07,17,06,31,15.80
2018,07,17,06,32,15.90
2018,07,17,06,33,15.90
2018,07,17,06,34,15.90
2018,07,17,06,35,15.90
2018,07,17,06,36,15.90
2018,07,17,06,37,15.90
2018,07,17,06,38,15.90
2018,07,17,06,39,15.90
2018,07,17,06,40,15.90
2018,07,17,06,41,15.90
2018,07,17,06,42,16.00
2018,07,17,06,43,16.00
2018,07,17,06,44,16.00
2018,07,17,06,45,16.00
2018,07,17,06,46,16.00
2018,07,17,06,47,16.00
2018,07,17,06,48,16.00
2018,07,17,06,49,16.00
2018,07,17,06,50,16.00
2018,07,17,06,51,16.00
2018,07,17,06,52,16.00
2018,07,17,06,53,16.10
2018,07,17,06,54,16.10
2018,07,17,06,55,16.20
2018,07,17,06,56,16.20
2018,07,17,06,57,16.30
2018,07,17,06,58,16.30
2018,07,17,06,59,16.40
2018,07,17,07,00,16.40
2018,07,17,07,01,16.40
2018,07,17,07,02,16.50
2018,07,17,07,03,16.50
2018,07,17,07,04,16.50
2018,07,17,07,05,16.60
2018,07,17,07,06,16.60
2018,07,17,07,07,16.70
2018,07,17,07,08,16.70
2018,07,17,07,09,16.70
2018,07,17,07,10,16.80
2018,07,17,07,11,16.80
2018,07,17,07,12,16.80
2018,07,17,07,13,16.80
2018,07,17,07,14,16.80
2018,07,17,07,15,16.90
2018,07,17,07,16,16.90
2018,07,17,07,17,16.90
2018,07,17,07,18,17.00
2018,07,17,07,19,17.00
2018,07,17,07,20,17.10
2018,07,17,07,21,17.10
2018,07,17,07,22,17.10
2018,07,17,07,23,17.20
2018,07,17,07,24,17.20
2018,07,17,07,25,17.20
2018,07,17,07,26,17.20
2018,07,17,07,27,17.20
2018,07,17,07,28,17.30
2018,07,17,07,29,17.30
2018,07,17,07,30,17.30
2018,07,17,07,31,17.30
2018,07,17,07,32,17.30
2018,07,17,07,33,17.40
2018,07,17,07,34,17.40
2018,07,17,07,35,17.40
2018,07,17,07,36,17.50
2018,07,17,07,37,17.50
2018,07,17,07,38,17.60
2018,07,17,07,39,17.70
2018,07,17,07,40,17.80
2018,07,17,07,41,17.80
2018,07,17,07,42,17.90
2018,07,17,07,43,17.90
2018,07,17,07,44,18.00
2018,07,17,07,45,18.00
2018,07,17,07,46,18.10
2018,07,17,07,47,18.10
2018,07,17,07,48,18.20
2018,07,17,07,49,18.20
2018,07,17,07,50,18.30
2018,07,17,07,51,18.30
2018,07,17,07,52,18.30
2018,07,17,07,53,18.40
2018,07,17,07,54,18.40
2018,07,17,07,55,18.50
2018,07,17,07,56,18.50
2018,07,17,07,57,18.50
2018,07,17,07,58,18.60
2018,07,17,07,59,18.60
2018,07,17,08,00,18.60
2018,07,17,08,01,18.70
2018,07,17,08,02,18.70
2018,07,17,08,03,18.70
2018,07,17,08,04,18.80
2018,07,17,08,05,18.80
2018,07,17,08,06,18.80
2018,07,17,08,07,18.80
2018,07,17,08,08,18.90
2018,07,17,08,09,18.90
2018,07,17,08,10,19.00
2018,07,17,08,11,19.00
2018,07,17,08,12,19.10
2018,07,17,08,13,19.10
2018,07,17,08,14,19.10
2018,07,17,08,15,19.10
2018,07,17,08,16,19.20
2018,07,17,08,17,19.20
2018,07,17,08,18,19.20
2018,07,17,08,19,19.30
2018,07,17,08,20,19.30
2018,07,17,08,21,19.30
2018,07,17,08,22,19.40
2018,07,17,08,23,19.40
2018,07,17,08,24,19.50
2018,07,17,08,25,19.60
2018,07,17,08,26,19.60
2018,07,17,08,27,19.70
2018,07,17,08,28,19.80
2018,07,17,08,29,19.80
2018,07,17,08,30,19.80
2018,07,17,08,31,19.90
2018,07,17,08,32,19.90
2018,07,17,08,33,19.90
2018,07,17,08,34,20.00
2018,07,17,08,35,20.00
2018,07,17,08,36,20.10
2018,07,17,08,37,20.10
2018,07,17,08,38,20.10
2018,07,17,08,39,20.10
2018,07,17,08,40,20.10
2018,07,17,08,41,20.20
2018,07,17,08,42,20.20
2018,07,17,08,43,20.20
2018,07,17,08,44,20.20
2018,07,17,08,45,20.20
2018,07,17,08,46,20.20
2018,07,17,08,47,20.20
2018,07,17,08,48,20.20
2018,07,17,08,49,20.20
2018,07,17,08,50,20.20
2018,07,17,08,51,20.20
2018,07,17,08,52,20.20
2018,07,17,08,53,20.20
2018,07,17,08,54,20.20
2018,07,17,08,55,20.20
2018,07,17,08,56,20.20
2018,07,17,08,57,20.20
2018,07,17,08,58,20.20
2018,07,17,08,59,20.20
2018,07,17,09,00,20.20
2018,07,17,09,01,20.20
2018,07,17,09,02,20.20
2018,07,17,09,03,20.30
2018,07,17,09,04,20.30
2018,07,17,09,05,20.30
2018,07,17,09,06,20.30
2018,07,17,09,07,20.30
2018,07,17,09,08,20.30
2018,07,17,09,09,20.30
2018,07,17,09,10,20.30
2018,07,17,09,11,20.30
2018,07,17,09,12,20.30
2018,07,17,09,13,20.30
2018,07,17,09,14,20.30
2018,07,17,09,15,20.30
2018,07,17,09,16,20.30
2018,07,17,09,17,20.30
2018,07,17,09,18,20.40
2018,07,17,09,19,20.40
2018,07,17,09,20,20.40
2018,07,17,09,21,20.40
2018,07,17,09,22,20.50
2018,07,17,09,23,20.50
2018,07,17,09,24,20.50
2018,07,17,09,25,20.60
2018,07,17,09,26,20.60
2018,07,17,09,27,20.60
2018,07,17,09,28,20.60
2018,07,17,09,29,20.60
2018,07,17,09,30,20.70
2018,07,17,09,31,20.80
2018,07,17,09,32,20.80
2018,07,17,09,33,20.80
2018,07,17,09,34,20.90
2018,07,17,09,35,20.90
2018,07,17,09,36,21.00
2018,07,17,09,37,21.10
2018,07,17,09,38,21.20
2018,07,17,09,39,21.20
2018,07,17,09,40,21.20
2018,07,17,09,41,21.30
2018,07,17,09,42,21.40
2018,07,17,09,43,21.40
2018,07,17,09,44,21.50
2018,07,17,09,45,21.50
2018,07,17,09,46,21.60
2018,07,17,09,47,21.70
2018,07,17,09,48,21.80
2018,07,17,09,49,21.80
2018,07,17,09,50,21.90
2018,07,17,09,51,21.90
2018,07,17,09,52,21.90
2018,07,17,09,53,22.00
2018,07,17,09,54,22.00
2018,07,17,09,55,22.10
2018,07,17,09,56,22.10
2018,07,17,09,57,22.20
2018,07,17,09,58,22.20
2018,07,17,09,59,22.30
2018,07,17,10,00,22.30
2018,07,17,10,01,22.40
2018,07,17,10,02,22.50
2018,07,17,10,03,22.50
2018,07,17,10,04,22.60
2018,07,17,10,05,22.70
2018,07,17,10,06,22.70
2018,07,17,10,07,22.80
2018,07,17,10,08,22.80
2018,07,17,10,09,22.80
2018,07,17,10,10,22.90
2018,07,17,10,11,22.90
2018,07,17,10,12,22.90
2018,07,17,10,13,22.90
2018,07,17,10,14,22.90
2018,07,17,10,15,22.90
2018,07,17,10,16,23.00
2018,07,17,10,17,23.00
2018,07,17,10,18,23.10
2018,07,17,10,19,23.20
2018,07,17,10,20,23.20
2018,07,17,10,21,23.20
2018,07,17,10,22,23.20
2018,07,17,10,23,23.20
2018,07,17,10,24,23.10
2018,07,17,10,25,23.00
2018,07,17,10,26,23.00
2018,07,17,10,27,23.00
2018,07,17,10,28,23.00
2018,07,17,10,29,23.10
2018,07,17,10,30,23.10
2018,07,17,10,31,23.10
2018,07,17,10,32,23.20
2018,07,17,10,33,23.20
2018,07,17,10,34,23.30
2018,07,17,10,35,23.30
2018,07,17,10,36,23.30
2018,07,17,10,37,23.30
2018,07,17,10,38,23.40
2018,07,17,10,39,23.40
2018,07,17,10,40,23.40
2018,07,17,10,41,23.50
2018,07,17,10,42,23.50
2018,07,17,10,43,23.50
2018,07,17,10,44,23.60
2018,07,17,10,45,23.60
2018,07,17,10,46,23.60
2018,07,17,10,47,23.70
2018,07,17,10,48,23.70
2018,07,17,10,49,23.80
2018,07,17,10,50,23.80
2018,07,17,10,51,23.90
2018,07,17,10,52,24.00
2018,07,17,10,53,24.10
2018,07,17,10,54,24.10
2018,07,17,10,55,24.10
2018,07,17,10,56,24.10
2018,07,17,10,57,24.10
2018,07,17,10,58,24.10
2018,07,17,10,59,24.20
2018,07,17,11,00,24.30
2018,07,17,11,01,24.30
2018,07,17,11,02,24.40
2018,07,17,11,03,24.50
2018,07,17,11,04,24.60
2018,07,17,11,05,24.70
2018,07,17,11,06,24.70
2018,07,17,11,07,24.80
2018,07,17,11,08,24.90
2018,07,17,11,09,25.00
2018,07,17,11,10,25.00
2018,07,17,11,11,25.00
2018,07,17,11,12,24.90
2018,07,17,11,13,24.90
2018,07,17,11,14,24.90
2018,07,17,11,15,24.90
2018,07,17,11,16,25.00
2018,07,17,11,17,25.10
2018,07,17,11,18,25.10
2018,07,17,11,19,25.10
2018,07,17,11,20,25.10
2018,07,17,11,21,25.10
2018,07,17,11,22,25.10
2018,07,17,11,23,25.00
2018,07,17,11,24,25.00
2018,07,17,11,25,25.00
2018,07,17,11,26,25.00
2018,07,17,11,27,25.00
2018,07,17,11,28,25.00
2018,07,17,11,29,25.10
2018,07,17,11,30,25.10
2018,07,17,11,31,25.20
2018,07,17,11,32,25.20
2018,07,17,11,33,25.30
2018,07,17,11,34,25.30
2018,07,17,11,35,25.40
2018,07,17,11,36,25.50
2018,07,17,11,37,25.50
2018,07,17,11,38,25.50
2018,07,17,11,39,25.50
2018,07,17,11,40,25.40
2018,07,17,11,41,25.40
2018,07,17,11,42,25.40
2018,07,17,11,43,25.40
2018,07,17,11,44,25.50
2018,07,17,11,45,25.50
2018,07,17,11,46,25.50
2018,07,17,11,47,25.50
2018,07,17,11,48,25.40
2018,07,17,11,49,25.40
2018,07,17,11,50,25.30
2018,07,17,11,51,25.20
2018,07,17,11,52,25.10
2018,07,17,11,53,25.00
2018,07,17,11,54,24.90
2018,07,17,11,55,24.90
2018,07,17,11,56,24.90
2018,07,17,11,57,24.90
2018,07,17,11,58,25.00
2018,07,17,11,59,25.00
2018,07,17,12,00,25.00
2018,07,17,12,01,25.10
2018,07,17,12,02,25.00
2018,07,17,12,03,25.00
2018,07,17,12,04,25.10
2018,07,17,12,05,25.10
2018,07,17,12,06,25.00
2018,07,17,12,07,24.90
2018,07,17,12,08,24.90
2018,07,17,12,09,24.90
2018,07,17,12,10,24.90
2018,07,17,12,11,24.90
2018,07,17,12,12,25.00
2018,07,17,12,13,25.00
2018,07,17,12,14,25.10
2018,07,17,12,15,25.10
2018,07,17,12,16,25.20
2018,07,17,12,17,25.20
2018,07,17,12,18,25.20
2018,07,17,12,19,25.20
2018,07,17,12,20,25.20
2018,07,17,12,21,25.30
2018,07,17,12,22,25.30
2018,07,17,12,23,25.30
2018,07,17,12,24,25.30
2018,07,17,12,25,25.30
2018,07,17,12,26,25.20
2018,07,17,12,27,25.10
2018,07,17,12,28,25.10
2018,07,17,12,29,25.00
2018,07,17,12,30,24.90
2018,07,17,12,31,24.80
2018,07,17,12,32,24.70
2018,07,17,12,33,24.70
2018,07,17,12,34,24.60
2018,07,17,12,35,24.60
2018,07,17,12,36,24.50
2018,07,17,12,37,24.50
2018,07,17,12,38,24.40
2018,07,17,12,39,24.40
2018,07,17,12,40,24.40
2018,07,17,12,41,24.40
2018,07,17,12,42,24.50
2018,07,17,12,43,24.60
2018,07,17,12,44,24.60
2018,07,17,12,45,24.60
2018,07,17,12,46,24.50
2018,07,17,12,47,24.50
2018,07,17,12,48,24.40
2018,07,17,12,49,24.40
2018,07,17,12,50,24.30
2018,07,17,12,51,24.30
2018,07,17,12,52,24.40
2018,07,17,12,53,24.40
2018,07,17,12,54,24.50
2018,07,17,12,55,24.50
2018,07,17,12,56,24.60
2018,07,17,12,57,24.70
2018,07,17,12,58,24.80
2018,07,17,12,59,24.90
2018,07,17,13,00,24.90
2018,07,17,13,01,24.90
2018,07,17,13,02,25.00
2018,07,17,13,03,25.00
2018,07,17,13,04,25.00
2018,07,17,13,05,25.10
2018,07,17,13,06,25.10
2018,07,17,13,07,25.20
2018,07,17,13,08,25.30
2018,07,17,13,09,25.40
2018,07,17,13,10,25.50
2018,07,17,13,11,25.60
2018,07,17,13,12,25.60
2018,07,17,13,13,25.60
2018,07,17,13,14,25.70
2018,07,17,13,15,25.60
2018,07,17,13,16,25.60
2018,07,17,13,17,25.50
2018,07,17,13,18,25.40
2018,07,17,13,19,25.40
2018,07,17,13,20,25.40
2018,07,17,13,21,25.50
2018,07,17,13,22,25.60
2018,07,17,13,23,25.70
2018,07,17,13,24,25.70
2018,07,17,13,25,25.80
2018,07,17,13,26,25.80
2018,07,17,13,27,25.80
2018,07,17,13,28,25.80
2018,07,17,13,29,25.80
2018,07,17,13,30,25.80
2018,07,17,13,31,25.80
2018,07,17,13,32,25.80
2018,07,17,13,33,25.70
2018,07,17,13,34,25.70
2018,07,17,13,35,25.60
2018,07,17,13,36,25.50
2018,07,17,13,37,25.30
2018,07,17,13,38,25.30
2018,07,17,13,39,25.20
2018,07,17,13,40,25.20
2018,07,17,13,41,25.20
2018,07,17,13,42,25.10
2018,07,17,13,43,25.10
2018,07,17,13,44,25.10
2018,07,17,13,45,25.20
2018,07,17,13,46,25.20
2018,07,17,13,47,25.30
2018,07,17,13,48,25.40
2018,07,17,13,49,25.40
2018,07,17,13,50,25.50
2018,07,17,13,51,25.70
2018,07,17,13,52,25.90
2018,07,17,13,53,26.00
2018,07,17,13,54,26.10
2018,07,17,13,55,26.30
2018,07,17,13,56,26.40
2018,07,17,13,57,26.60
2018,07,17,13,58,26.80
2018,07,17,13,59,26.90
2018,07,17,14,00,27.10
2018,07,17,14,01,27.20
2018,07,17,14,02,27.40
2018,07,17,14,03,27.40
2018,07,17,14,04,27.30
2018,07,17,14,05,27.20
2018,07,17,14,06,27.10
2018,07,17,14,07,27.00
2018,07,17,14,08,27.00
2018,07,17,14,09,26.90
2018,07,17,14,10,27.00
2018,07,17,14,11,27.00
2018,07,17,14,12,27.00
2018,07,17,14,13,27.00
2018,07,17,14,14,27.10
2018,07,17,14,15,27.30
2018,07,17,14,16,27.40
2018,07,17,14,17,27.40
2018,07,17,14,18,27.50
2018,07,17,14,19,27.60
2018,07,17,14,20,27.60
2018,07,17,14,21,27.70
2018,07,17,14,22,27.80
2018,07,17,14,23,27.90
2018,07,17,14,24,27.90
2018,07,17,14,25,28.00
2018,07,17,14,26,28.00
2018,07,17,14,27,28.10
2018,07,17,14,28,28.10
2018,07,17,14,29,28.20
2018,07,17,14,30,28.20
2018,07,17,14,31,28.30
2018,07,17,14,32,28.30
2018,07,17,14,33,28.30
2018,07,17,14,34,28.30
2018,07,17,14,35,28.40
2018,07,17,14,36,28.40
2018,07,17,14,37,28.40
2018,07,17,14,38,28.40
2018,07,17,14,39,28.40
2018,07,17,14,40,28.40
2018,07,17,14,41,28.40
2018,07,17,14,42,28.40
2018,07,17,14,43,28.40
2018,07,17,14,44,28.40
2018,07,17,14,45,28.30
2018,07,17,14,46,28.30
2018,07,17,14,47,28.20
2018,07,17,14,48,28.20
2018,07,17,14,49,28.10
2018,07,17,14,50,28.10
2018,07,17,14,51,28.10
2018,07,17,14,52,28.20
2018,07,17,14,53,28.20
2018,07,17,14,54,28.20
2018,07,17,14,55,28.20
2018,07,17,14,56,28.20
2018,07,17,14,57,28.10
2018,07,17,14,58,28.10
2018,07,17,14,59,28.10
2018,07,17,15,00,28.10
2018,07,17,15,01,28.10
2018,07,17,15,02,28.20
2018,07,17,15,03,28.20
2018,07,17,15,04,28.20
2018,07,17,15,05,28.20
2018,07,17,15,06,28.20
2018,07,17,15,07,28.20
2018,07,17,15,08,28.20
2018,07,17,15,09,28.20
2018,07,17,15,10,28.10
2018,07,17,15,11,28.20
2018,07,17,15,12,28.20
2018,07,17,15,13,28.20
2018,07,17,15,14,28.20
2018,07,17,15,15,28.20
2018,07,17,15,16,28.30
2018,07,17,15,17,28.20
2018,07,17,15,18,28.20
2018,07,17,15,19,28.20
2018,07,17,15,20,28.10
2018,07,17,15,21,28.10
2018,07,17,15,22,28.10
2018,07,17,15,23,28.10
2018,07,17,15,24,28.10
2018,07,17,15,25,28.10
2018,07,17,15,26,28.10
2018,07,17,15,27,28.00
2018,07,17,15,28,28.00
2018,07,17,15,29,27.90
2018,07,17,15,30,27.90
2018,07,17,15,31,27.90
2018,07,17,15,32,28.00
2018,07,17,15,33,28.00
2018,07,17,15,34,27.90
2018,07,17,15,35,27.80
2018,07,17,15,36,27.80
2018,07,17,15,37,27.70
2018,07,17,15,38,27.70
2018,07,17,15,39,27.60
2018,07,17,15,40,27.50
2018,07,17,15,41,27.50
2018,07,17,15,42,27.50
2018,07,17,15,43,27.40
2018,07,17,15,44,27.40
2018,07,17,15,45,27.40
2018,07,17,15,46,27.40
2018,07,17,15,47,27.40
2018,07,17,15,48,27.40
2018,07,17,15,49,27.40
2018,07,17,15,50,27.40
2018,07,17,15,51,27.40
2018,07,17,15,52,27.30
2018,07,17,15,53,27.30
2018,07,17,15,54,27.20
2018,07,17,15,55,27.20
2018,07,17,15,56,27.30
2018,07,17,15,57,27.40
2018,07,17,15,58,27.40
2018,07,17,15,59,27.50
2018,07,17,16,00,27.60
2018,07,17,16,01,27.80
2018,07,17,16,02,27.90
2018,07,17,16,03,28.00
2018,07,17,16,04,28.00
2018,07,17,16,05,27.90
2018,07,17,16,06,27.90
2018,07,17,16,07,27.90
2018,07,17,16,08,27.80
2018,07,17,16,09,27.80
2018,07,17,16,10,27.80
2018,07,17,16,11,27.80
2018,07,17,16,12,27.80
2018,07,17,16,13,27.80
2018,07,17,16,14,27.70
2018,07,17,16,15,27.70
2018,07,17,16,16,27.70
2018,07,17,16,17,27.70
2018,07,17,16,18,27.70
2018,07,17,16,19,27.80
2018,07,17,16,20,27.80
2018,07,17,16,21,27.80
2018,07,17,16,22,27.80
2018,07,17,16,23,27.80
2018,07,17,16,24,27.80
2018,07,17,16,25,27.80
2018,07,17,16,26,27.70
2018,07,17,16,27,27.70
2018,07,17,16,28,27.60
2018,07,17,16,29,27.60
2018,07,17,16,30,27.60
2018,07,17,16,31,27.50
2018,07,17,16,32,27.50
2018,07,17,16,33,27.40
2018,07,17,16,34,27.30
2018,07,17,16,35,27.20
2018,07,17,16,36,27.20
2018,07,17,16,37,27.10
2018,07,17,16,38,27.00
2018,07,17,16,39,27.00
2018,07,17,16,40,26.90
2018,07,17,16,41,26.90
2018,07,17,16,42,26.90
2018,07,17,16,43,26.90
2018,07,17,16,44,26.90
2018,07,17,16,45,26.80
2018,07,17,16,46,26.80
2018,07,17,16,47,26.80
2018,07,17,16,48,26.80
2018,07,17,16,49,26.80
2018,07,17,16,50,26.80
2018,07,17,16,51,26.80
2018,07,17,16,52,26.70
2018,07,17,16,53,26.70
2018,07,17,16,54,26.70
2018,07,17,16,55,26.70
2018,07,17,16,56,26.60
2018,07,17,16,57,26.50
2018,07,17,16,58,26.50
2018,07,17,16,59,26.40
2018,07,17,17,00,26.30
2018,07,17,17,01,26.30
2018,07,17,17,02,26.30
2018,07,17,17,03,26.30
2018,07,17,17,04,26.20
2018,07,17,17,05,26.20
2018,07,17,17,06,26.10
2018,07,17,17,07,26.10
2018,07,17,17,08,26.20
2018,07,17,17,09,26.30
2018,07,17,17,10,26.30
2018,07,17,17,11,26.30
2018,07,17,17,12,26.30
2018,07,17,17,13,26.20
2018,07,17,17,14,26.20
2018,07,17,17,15,26.20
2018,07,17,17,16,26.10
2018,07,17,17,17,26.10
2018,07,17,17,18,26.10
2018,07,17,17,19,26.00